Flag for Canada Weather past 2 weeks in Brandon, Manitoba, Canada

Now
30 °F

Scattered clouds.


Feels Like: 19 °F
Forecast: 22 / 38 °F
Wind: 15 mph from East

Location: Brandon


UV Index: 0 (Low)

Visibility: 15 mi


Pressure: 30.33 "Hg

Humidity: 69%

Dew point: 21 °F

Location of BrandonLocation

Historic Weather in Brandon

°F

Brandon temperature yesterday

Maximum temperature yesterday: 28 °F (at 2:00 PM)
Minimum temperature yesterday: 16 °F (at 7:00 AM)
Average temperature yesterday: 23 °F

Past Weeks' High & Low Weather Summary

 TemperatureHumidityPressure
High48 °F (Apr 8, 7:00 PM)100% (Apr 3, 5:00 AM)30.48 "Hg (Apr 3, 5:00 AM)
Low5 °F (Apr 4, 7:00 AM)40% (Apr 16, 3:00 PM)29.42 "Hg (Apr 9, 1:00 PM)
Average27 °F77%30.05 "Hg
* Reported Apr 2 7:00 PM — Apr 17 7:00 PM, Brandon, Weather by CustomWeather, © 2014

Note: Actual official high and low records may vary slightly from our data, if they occured in-between our weather recording intervals... More about our weather records

Advertising

Historic Weather Conditions — Data for Previous 24 hours

 ConditionsComfort  
Time TempWeatherWind HumidityBarometerVisibility
7:00 PM
Apr 17
34 °FPartly sunny.17 mph56%30.34 "Hg15 mi
6:00 PM34 °FBroken clouds.17 mph51%30.35 "Hg15 mi
5:00 PM36 °FBroken clouds.15 mph48%30.36 "Hg15 mi
4:00 PM36 °FScattered clouds.10 mph48%30.37 "Hg15 mi
3:00 PM34 °FPassing clouds.10 mph44%30.39 "Hg15 mi
2:00 PM32 °FPassing clouds.10 mph47%30.41 "Hg15 mi
1:00 PM30 °FPassing clouds.8 mph51%30.43 "Hg15 mi
12:00 PM27 °FPassing clouds.9 mph59%30.45 "Hg15 mi
11:00 AM25 °FSunny.8 mph54%30.47 "Hg15 mi
10:00 AM23 °FSunny.7 mph58%30.47 "Hg15 mi
9:00 AM19 °FSunny.8 mph63%30.48 "Hg15 mi
8:00 AM16 °FSunny.6 mph73%30.47 "Hg15 mi
7:00 AM12 °FClear.8 mph79%30.48 "Hg15 mi
6:00 AM12 °FClear.7 mph79%30.48 "Hg15 mi
5:00 AM14 °FClear.8 mph79%30.48 "Hg15 mi
4:00 AM16 °FClear.6 mph73%30.48 "Hg15 mi
3:00 AM16 °FClear.7 mph73%30.48 "Hg15 mi
2:00 AM16 °FClear.6 mph79%30.48 "Hg15 mi
1:00 AM18 °FClear.6 mph79%30.48 "Hg15 mi
12:00 AM19 °FClear.7 mph73%30.47 "Hg15 mi
11:00 PM
Apr 16
19 °FClear.6 mph86%30.47 "Hg15 mi
10:00 PM21 °FClear.3 mph74%30.47 "Hg15 mi
9:00 PM23 °FPassing clouds.7 mph63%30.45 "Hg15 mi
8:00 PM27 °FPassing clouds.13 mph46%30.45 "Hg15 mi
Weather by CustomWeather, © 2014

See weather overview